Mineral Point, WI

11:19 PM CDT on July 26, 2017 (GMT -0500)
Iowa County

Weather History for KMRJ - November, 2011

Change the Weather History Date:

Wednesday, November 16, 2011

  Actual Average (KLNR) Record (KLNR)
Temperature  
Mean Temperature 34 °F -  
Max Temperature 39 °F 43 °F 61 °F (2001)
Min Temperature 28 °F 27 °F 10 °F (2014)
Degree Days  
Heating Degree Days 32    
Moisture  
Dew Point 15 °F    
Average Humidity 49    
Maximum Humidity 64    
Minimum Humidity 26    
Precipitation  
Precipitation 0.00 in - - ()
Sea Level Pressure  
Sea Level Pressure 30.05 in    
Wind  
Wind Speed 11 mph (West)    
Max Wind Speed 18 mph    
Max Gust Speed 26 mph    
Visibility 10 miles    
Events      
Averages and records for this station are not official NWS values.
T = Trace of Precipitation, MM = Missing Value Source: NWS Daily Summary

Daily Weather History Graph

Daily Weather History Graph

Search for Another Location

Airport or City:

Trip Planner

Search our weather history database for the weather conditions in past years. The results will help you decide how hot, cold, wet, or windy it might be!

Date:

Astronomy

Nov. 16, 2011 Rise Set
Actual Time 6:54 AM CST 4:36 PM CST
Civil Twilight 6:23 AM CST 5:07 PM CST
Nautical Twilight 5:49 AM CST 5:41 PM CST
Astronomical Twilight 5:15 AM CST 6:15 PM CST
Moon 9:52 PM CST (11/16) 11:29 AM CST (11/16)
Length of Visible Light 10h 44m
Length of Day
9h 42m
Waning Gibbous, 70% of the Moon is Illuminated
Nov 16
Waning Gibbous
Nov 18
Last Quarter
Nov 25
New
Dec 2
First Quarter
Dec 10
Full

Hourly Weather History & Observations

Time (CST) Temp. Windchill Dew Point Humidity Pressure Visibility Wind Dir Wind Speed Gust Speed Precip Events Conditions
12:15 AM 35.6 °F 27.5 °F 21.2 °F 56% 29.92 in 10.0 mi WNW 11.5 mph - N/A   Clear
12:35 AM 35.6 °F 28.6 °F 21.2 °F 56% 29.92 in 10.0 mi WNW 9.2 mph - N/A   Clear
12:55 AM 33.8 °F 27.0 °F 21.2 °F 60% 29.92 in 10.0 mi WNW 8.1 mph - N/A   Clear
1:15 AM 33.8 °F 27.0 °F 21.2 °F 60% 29.90 in 10.0 mi WNW 8.1 mph - N/A   Clear
2:15 AM 32.0 °F 22.1 °F 21.2 °F 64% 29.93 in 10.0 mi WNW 13.8 mph 19.6 mph N/A   Clear
2:35 AM 32.0 °F 24.2 °F 21.2 °F 64% 29.94 in 10.0 mi WNW 9.2 mph - N/A   Clear
2:55 AM 32.0 °F 24.8 °F 21.2 °F 64% 29.93 in 10.0 mi West 8.1 mph - N/A   Clear
3:15 AM 32.0 °F 24.2 °F 21.2 °F 64% 29.93 in 10.0 mi WNW 9.2 mph - N/A   Clear
3:35 AM 32.0 °F 23.0 °F 19.4 °F 60% 29.93 in 10.0 mi NW 11.5 mph 18.4 mph N/A   Clear
3:55 AM 32.0 °F 23.6 °F 19.4 °F 60% 29.94 in 10.0 mi WNW 10.4 mph 21.9 mph N/A   Clear
4:15 AM 32.0 °F 24.2 °F 19.4 °F 60% 29.94 in 10.0 mi WNW 9.2 mph 19.6 mph N/A   Clear
4:35 AM 32.0 °F 24.8 °F 19.4 °F 60% 29.95 in 10.0 mi WNW 8.1 mph - N/A   Clear
4:55 AM 30.2 °F 23.4 °F 17.6 °F 60% 29.96 in 10.0 mi WNW 6.9 mph - N/A   Clear
5:15 AM 30.2 °F 21.3 °F 19.4 °F 64% 29.97 in 10.0 mi West 10.4 mph - N/A   Clear
5:35 AM 30.2 °F 22.6 °F 17.6 °F 60% 29.98 in 10.0 mi WNW 8.1 mph - N/A   Clear
6:15 AM 28.4 °F 22.2 °F 17.6 °F 64% 30.00 in 10.0 mi WNW 5.8 mph - N/A   Clear
6:35 AM 28.4 °F 21.2 °F 17.6 °F 64% 30.00 in 10.0 mi WNW 6.9 mph - N/A   Clear
6:55 AM 28.4 °F 22.2 °F 17.6 °F 64% 30.02 in 10.0 mi WNW 5.8 mph - N/A   Clear
7:35 AM 28.4 °F 20.4 °F 17.6 °F 64% 30.03 in 10.0 mi West 8.1 mph - N/A   Clear
8:15 AM 30.2 °F 21.3 °F 17.6 °F 60% 30.06 in 10.0 mi West 10.4 mph - N/A   Clear
8:35 AM 32.0 °F 22.5 °F 19.4 °F 60% 30.07 in 10.0 mi West 12.7 mph - N/A   Clear
8:55 AM 32.0 °F 22.5 °F 17.6 °F 55% 30.07 in 10.0 mi West 12.7 mph - N/A   Clear
9:15 AM 32.0 °F 22.5 °F 17.6 °F 55% 30.08 in 10.0 mi WNW 12.7 mph - N/A   Clear
9:35 AM 32.0 °F 22.5 °F 17.6 °F 55% 30.08 in 10.0 mi WNW 12.7 mph 19.6 mph N/A   Clear
9:55 AM 33.8 °F 23.9 °F 17.6 °F 52% 30.08 in 10.0 mi WNW 15.0 mph 21.9 mph N/A   Clear
10:15 AM 33.8 °F 23.9 °F 17.6 °F 52% 30.09 in 10.0 mi WNW 15.0 mph 19.6 mph N/A   Clear
10:35 AM 35.6 °F 26.2 °F 17.6 °F 48% 30.09 in 10.0 mi WNW 15.0 mph 20.7 mph N/A   Clear
10:55 AM 35.6 °F 26.2 °F 14.0 °F 41% 30.09 in 10.0 mi WNW 15.0 mph 19.6 mph N/A   Clear
11:15 AM 35.6 °F 27.1 °F 12.2 °F 38% 30.09 in 10.0 mi WNW 12.7 mph 25.3 mph N/A   Clear
11:35 AM 37.4 °F 29.3 °F 10.4 °F 33% 30.09 in 10.0 mi NW 12.7 mph 21.9 mph N/A   Clear
11:55 AM 37.4 °F 28.9 °F 12.2 °F 36% 30.08 in 10.0 mi WNW 13.8 mph 19.6 mph N/A   Clear
12:15 PM 37.4 °F 28.5 °F 10.4 °F 33% 30.08 in 10.0 mi West 15.0 mph 23.0 mph N/A   Clear
12:35 PM 37.4 °F 28.9 °F 8.6 °F 30% 30.08 in 10.0 mi WNW 13.8 mph 20.7 mph N/A   Clear
12:55 PM 39.2 °F 30.5 °F 8.6 °F 28% 30.08 in 10.0 mi WNW 16.1 mph 23.0 mph N/A   Clear
1:15 PM 39.2 °F 30.8 °F 8.6 °F 28% 30.08 in 10.0 mi West 15.0 mph 24.2 mph N/A   Clear
1:35 PM 39.2 °F 31.6 °F 8.6 °F 28% 30.08 in 10.0 mi West 12.7 mph 17.3 mph N/A   Clear
1:55 PM 39.2 °F 31.2 °F 6.8 °F 26% 30.08 in 10.0 mi WNW 13.8 mph 23.0 mph N/A   Clear
2:15 PM 39.2 °F 29.8 °F 8.6 °F 28% 30.07 in 10.0 mi West 18.4 mph 23.0 mph N/A   Clear
2:35 PM 39.2 °F 31.6 °F 6.8 °F 26% 30.08 in 10.0 mi WNW 12.7 mph - N/A   Clear
2:55 PM 37.4 °F 27.8 °F 10.4 °F 33% 30.07 in 10.0 mi West 17.3 mph 25.3 mph N/A   Clear
3:15 PM 37.4 °F 27.8 °F 10.4 °F 33% 30.08 in 10.0 mi West 17.3 mph 25.3 mph N/A   Clear
3:35 PM 37.4 °F 27.5 °F 10.4 °F 33% 30.09 in 10.0 mi West 18.4 mph 26.5 mph N/A   Clear
3:55 PM 37.4 °F 29.3 °F 12.2 °F 36% 30.09 in 10.0 mi West 12.7 mph - N/A   Clear
4:15 PM 35.6 °F 27.5 °F 14.0 °F 41% 30.10 in 10.0 mi West 11.5 mph - N/A   Clear
4:35 PM 33.8 °F 26.4 °F 14.0 °F 44% 30.10 in 10.0 mi West 9.2 mph - N/A   Clear
5:15 PM 33.8 °F 27.7 °F 14.0 °F 44% 30.10 in 10.0 mi SW 6.9 mph - N/A   Clear
5:35 PM 33.8 °F 27.0 °F 14.0 °F 44% 30.09 in 10.0 mi SW 8.1 mph - N/A   Clear
5:55 PM 32.0 °F 24.8 °F 14.0 °F 48% 30.10 in 10.0 mi SW 8.1 mph - N/A   Clear
6:35 PM 32.0 °F 23.6 °F 14.0 °F 48% 30.09 in 10.0 mi SW 10.4 mph - N/A   Scattered Clouds
6:55 PM 32.0 °F 23.6 °F 14.0 °F 48% 30.09 in 10.0 mi SW 10.4 mph - N/A   Clear
7:15 PM 32.0 °F 24.2 °F 14.0 °F 48% 30.09 in 10.0 mi SW 9.2 mph - N/A   Scattered Clouds
7:35 PM 33.8 °F 26.4 °F 14.0 °F 44% 30.09 in 10.0 mi WSW 9.2 mph - N/A   Mostly Cloudy
7:55 PM 32.0 °F 24.2 °F 14.0 °F 48% 30.09 in 10.0 mi WSW 9.2 mph - N/A   Scattered Clouds
8:15 PM 32.0 °F 23.6 °F 15.8 °F 51% 30.09 in 10.0 mi WSW 10.4 mph - N/A   Scattered Clouds
9:15 PM 32.0 °F 23.0 °F 15.8 °F 51% 30.10 in 10.0 mi West 11.5 mph - N/A   Clear
9:35 PM 32.0 °F 22.5 °F 15.8 °F 51% 30.10 in 10.0 mi West 12.7 mph - N/A   Clear
9:55 PM 32.0 °F 23.6 °F 14.0 °F 48% 30.10 in 10.0 mi WNW 10.4 mph - N/A   Clear
10:15 PM 32.0 °F 23.0 °F 14.0 °F 48% 30.10 in 10.0 mi WNW 11.5 mph 16.1 mph N/A   Clear
10:35 PM 32.0 °F 23.6 °F 14.0 °F 48% 30.10 in 10.0 mi WNW 10.4 mph - N/A   Clear
10:55 PM 32.0 °F 21.6 °F 12.2 °F 44% 30.09 in 10.0 mi West 15.0 mph - N/A   Clear
11:15 PM 30.2 °F 19.8 °F 14.0 °F 51% 30.09 in 10.0 mi West 13.8 mph 18.4 mph N/A   Clear
11:35 PM 30.2 °F 20.2 °F 14.0 °F 51% 30.09 in 10.0 mi WNW 12.7 mph - N/A   Clear